Batesville, AR

8:27 PM CST on February 24, 2018 (GMT -0600)
Batesville Regional

Weather History for KBVX - May, 2013

Change the Weather History Date:

Monday, May 13, 2013

  Actual Average Record
Temperature  
Mean Temperature 62 °F -  
Max Temperature 78 °F 80 °F 91 °F (1984)
Min Temperature 46 °F 56 °F 34 °F (1960)
Degree Days  
Heating Degree Days 3    
Growing Degree Days 12 (Base 50)    
Moisture  
Dew Point 47 °F    
Average Humidity 60    
Maximum Humidity 87    
Minimum Humidity 35    
Precipitation  
Precipitation 0.00 in - - ()
Sea Level Pressure  
Sea Level Pressure 30.18 in    
Wind  
Wind Speed 3 mph (South)    
Max Wind Speed 10 mph    
Max Gust Speed 18 mph    
Visibility 10 miles    
Events      
Averages and records for this station are not official NWS values.
T = Trace of Precipitation, MM = Missing Value Source: NWS Daily Summary

Daily Weather History Graph

Daily Weather History Graph

Search for Another Location

Airport or City:

Trip Planner

Search our weather history database for the weather conditions in past years. The results will help you decide how hot, cold, wet, or windy it might be!

Date:

Astronomy

May. 13, 2013 Rise Set
Actual Time 6:02 AM CDT 8:03 PM CDT
Civil Twilight 5:34 AM CDT 8:31 PM CDT
Nautical Twilight 5:00 AM CDT 9:06 PM CDT
Astronomical Twilight 4:23 AM CDT 9:43 PM CDT
Moon 8:49 AM CDT (5/13) 11:12 PM CDT (5/13)
Length of Visible Light 14h 57m
Length of Day
14h 00m
Waxing Crescent, 12% of the Moon is Illuminated
May 13
Waxing Crescent
May 17
First Quarter
May 24
Full
May 31
Last Quarter
Jun 8
New

Hourly Weather History & Observations

Time (CDT) Temp. Windchill Dew Point Humidity Pressure Visibility Wind Dir Wind Speed Gust Speed Precip Events Conditions
12:15 AM 48.2 °F - 44.6 °F 87% 30.20 in 10.0 mi Calm Calm - N/A   Unknown
12:35 AM 48.2 °F - 44.6 °F 87% 30.20 in 10.0 mi Calm Calm - N/A   Unknown
12:55 AM 50.0 °F - 44.6 °F 82% 30.20 in 10.0 mi WNW 3.5 mph - N/A   Unknown
1:15 AM 51.8 °F - 44.6 °F 76% 30.20 in 10.0 mi West 3.5 mph - N/A   Unknown
1:35 AM 48.2 °F - 44.6 °F 87% 30.20 in 10.0 mi WNW 3.5 mph - N/A   Unknown
1:55 AM 50.0 °F - 42.8 °F 76% 30.20 in 10.0 mi NW 3.5 mph - N/A   Unknown
2:15 AM 50.0 °F - 42.8 °F 76% 30.19 in 10.0 mi Calm Calm - N/A   Unknown
2:35 AM 48.2 °F - 42.8 °F 82% 30.19 in 10.0 mi Calm Calm - N/A   Unknown
2:55 AM 48.2 °F - 42.8 °F 82% 30.19 in 10.0 mi Calm Calm - N/A   Unknown
3:15 AM 48.2 °F - 44.6 °F 87% 30.19 in 10.0 mi NW 4.6 mph - N/A   Unknown
3:35 AM 48.2 °F - 42.8 °F 82% 30.19 in 10.0 mi WNW 3.5 mph - N/A   Unknown
3:55 AM 48.2 °F - 42.8 °F 82% 30.19 in 10.0 mi WNW 4.6 mph - N/A   Unknown
4:15 AM 48.2 °F - 44.6 °F 87% 30.19 in 10.0 mi WSW 3.5 mph - N/A   Unknown
4:35 AM 48.2 °F - 42.8 °F 82% 30.20 in 10.0 mi WNW 3.5 mph - N/A   Unknown
4:55 AM 48.2 °F - 42.8 °F 82% 30.20 in 10.0 mi NW 4.6 mph - N/A   Mostly Cloudy
5:15 AM 48.2 °F - 42.8 °F 82% 30.20 in 10.0 mi Calm Calm - N/A   Mostly Cloudy
5:35 AM 48.2 °F - 42.8 °F 82% 30.20 in 10.0 mi Calm Calm - N/A   Partly Cloudy
5:55 AM 46.4 °F 45.2 °F 42.8 °F 87% 30.21 in 10.0 mi West 3.5 mph - N/A   Clear
6:15 AM 46.4 °F 44.3 °F 42.8 °F 87% 30.22 in 10.0 mi NW 4.6 mph - N/A   Clear
6:35 AM 46.4 °F 45.2 °F 42.8 °F 87% 30.23 in 10.0 mi NW 3.5 mph - N/A   Clear
6:55 AM 48.2 °F - 42.8 °F 82% 30.23 in 10.0 mi West 3.5 mph - N/A   Clear
7:15 AM 48.2 °F - 42.8 °F 82% 30.24 in 10.0 mi WNW 3.5 mph - N/A   Clear
7:35 AM 50.0 °F - 44.6 °F 82% 30.24 in 10.0 mi WNW 3.5 mph - N/A   Clear
7:55 AM 51.8 °F - 44.6 °F 76% 30.25 in 10.0 mi Calm Calm - N/A   Mostly Cloudy
8:15 AM 53.6 °F - 44.6 °F 72% 30.25 in 10.0 mi Calm Calm - N/A   Mostly Cloudy
8:35 AM 55.4 °F - 44.6 °F 67% 30.26 in 10.0 mi Calm Calm - N/A   Partly Cloudy
8:55 AM 57.2 °F - 44.6 °F 63% 30.26 in 10.0 mi Calm Calm - N/A   Scattered Clouds
9:15 AM 59.0 °F - 42.8 °F 55% 30.26 in 10.0 mi Calm Calm - N/A   Mostly Cloudy
9:35 AM 60.8 °F - 46.4 °F 59% 30.26 in 10.0 mi Calm Calm - N/A   Mostly Cloudy
9:55 AM 60.8 °F - 46.4 °F 59% 30.26 in 10.0 mi Calm Calm - N/A   Overcast
10:15 AM 62.6 °F - 48.2 °F 59% 30.26 in 10.0 mi SSE 3.5 mph - N/A   Mostly Cloudy
10:35 AM 64.4 °F - 46.4 °F 52% 30.26 in 10.0 mi Calm Calm - N/A   Unknown
10:55 AM 68.0 °F - 46.4 °F 46% 30.26 in 10.0 mi SE 6.9 mph - N/A   Unknown
11:15 AM 69.8 °F - 41.0 °F 35% 30.25 in 10.0 mi ESE 10.4 mph - N/A   Unknown
11:35 AM 69.8 °F - 42.8 °F 38% 30.26 in 10.0 mi ESE 6.9 mph - N/A   Unknown
11:55 AM 69.8 °F - 44.6 °F 40% 30.25 in 10.0 mi ESE 8.1 mph - N/A   Unknown
12:15 PM 71.6 °F - 46.4 °F 41% 30.23 in 10.0 mi ESE 9.2 mph - N/A   Unknown
12:35 PM 71.6 °F - 48.2 °F 43% 30.22 in 10.0 mi East 10.4 mph - N/A   Unknown
12:55 PM 73.4 °F - 48.2 °F 41% 30.21 in 10.0 mi SE 9.2 mph - N/A   Unknown
1:15 PM 73.4 °F - 48.2 °F 41% 30.20 in 10.0 mi SSE 10.4 mph - N/A   Unknown
1:35 PM 73.4 °F - 46.4 °F 38% 30.19 in 10.0 mi SSE 5.8 mph - N/A   Unknown
1:55 PM 75.2 °F - 48.2 °F 38% 30.18 in 10.0 mi ESE 8.1 mph 18.4 mph N/A   Unknown
2:15 PM 75.2 °F - 48.2 °F 38% 30.17 in 10.0 mi South 9.2 mph - N/A   Unknown
2:35 PM 75.2 °F - 46.4 °F 36% 30.17 in 10.0 mi South 8.1 mph - N/A   Unknown
3:35 PM 75.2 °F - 51.8 °F 44% 30.14 in 10.0 mi South 9.2 mph 17.3 mph N/A   Unknown
3:55 PM 77.0 °F - 51.8 °F 41% 30.14 in 10.0 mi South 9.2 mph - N/A   Unknown
4:15 PM 77.0 °F - 51.8 °F 41% 30.14 in 10.0 mi South 8.1 mph - N/A   Unknown
4:35 PM 78.8 °F - 51.8 °F 39% 30.13 in 10.0 mi South 9.2 mph - N/A   Unknown
4:55 PM 78.8 °F - 51.8 °F 39% 30.12 in 10.0 mi South 9.2 mph - N/A   Unknown
5:15 PM 78.8 °F - 50.0 °F 36% 30.11 in 10.0 mi SSE 10.4 mph - N/A   Unknown
5:35 PM 78.8 °F - 51.8 °F 39% 30.11 in 10.0 mi South 6.9 mph - N/A   Unknown
5:55 PM 78.8 °F - 51.8 °F 39% 30.10 in 10.0 mi SSW 6.9 mph - N/A   Unknown
6:35 PM 77.0 °F - 51.8 °F 41% 30.10 in 10.0 mi SSE 5.8 mph - N/A   Unknown
7:15 PM 75.2 °F - 53.6 °F 47% 30.10 in 10.0 mi SSE 4.6 mph - N/A   Unknown
7:35 PM 75.2 °F - 51.8 °F 44% 30.10 in 10.0 mi SE 4.6 mph - N/A   Unknown
7:55 PM 73.4 °F - 51.8 °F 47% 30.10 in 10.0 mi SE 4.6 mph - N/A   Unknown
8:15 PM 71.6 °F - 51.8 °F 50% 30.10 in 10.0 mi SE 3.5 mph - N/A   Unknown
8:35 PM 71.6 °F - 51.8 °F 50% 30.10 in 10.0 mi SE 4.6 mph - N/A   Unknown
8:55 PM 69.8 °F - 51.8 °F 53% 30.10 in 10.0 mi South 3.5 mph - N/A   Unknown
9:15 PM 69.8 °F - 51.8 °F 53% 30.10 in 10.0 mi SE 5.8 mph - N/A   Unknown
9:35 PM 69.8 °F - 51.8 °F 53% 30.10 in 10.0 mi South 3.5 mph - N/A   Unknown
9:55 PM 69.8 °F - 51.8 °F 53% 30.10 in 10.0 mi SSE 3.5 mph - N/A   Unknown
10:15 PM 69.8 °F - 51.8 °F 53% 30.10 in 10.0 mi South 3.5 mph - N/A   Unknown
10:35 PM 69.8 °F - 51.8 °F 53% 30.10 in 10.0 mi South 5.8 mph - N/A   Unknown
10:55 PM 69.8 °F - 50.0 °F 49% 30.09 in 10.0 mi South 4.6 mph - N/A   Unknown
11:15 PM 69.8 °F - 50.0 °F 49% 30.09 in 10.0 mi Calm Calm - N/A   Unknown
11:35 PM 68.0 °F - 50.0 °F 52% 30.09 in 10.0 mi ESE 4.6 mph - N/A   Unknown
11:55 PM 68.0 °F - 50.0 °F 52% 30.09 in 10.0 mi ESE 4.6 mph - N/A   Unknown